Washington, IA

12:31 AM CDT on May 28, 2017 (GMT -0500)
Washington Municipal

Weather History for KAWG - December, 2013

Change the Weather History Date:

Thursday, December 19, 2013

  Actual Average Record
Temperature  
Mean Temperature 34 °F -  
Max Temperature 39 °F 30 °F 46 °F (2006)
Min Temperature 30 °F 16 °F -7 °F (2000)
Degree Days  
Heating Degree Days 30    
Moisture  
Dew Point 33 °F    
Average Humidity 91    
Maximum Humidity 100    
Minimum Humidity 81    
Precipitation  
Precipitation 0.07 in - - ()
Sea Level Pressure  
Sea Level Pressure 29.79 in    
Wind  
Wind Speed 8 mph (ENE)    
Max Wind Speed 15 mph    
Max Gust Speed 20 mph    
Visibility 7 miles    
Events Rain    
Averages and records for this station are not official NWS values.
T = Trace of Precipitation, MM = Missing Value Source: NWS Daily Summary

Daily Weather History Graph

Daily Weather History Graph

Search for Another Location

Airport or City:

Trip Planner

Search our weather history database for the weather conditions in past years. The results will help you decide how hot, cold, wet, or windy it might be!

Date:

Astronomy

Dec. 19, 2013 Rise Set
Actual Time 7:28 AM CST 4:39 PM CST
Civil Twilight 6:56 AM CST 5:11 PM CST
Nautical Twilight 6:21 AM CST 5:46 PM CST
Astronomical Twilight 5:48 AM CST 6:19 PM CST
Moon 7:07 PM CST (12/19) 8:45 AM CST (12/19)
Length of Visible Light 10h 14m
Length of Day
9h 11m
Waning Gibbous, 95% of the Moon is Illuminated
Dec 19
Waning Gibbous
Dec 25
Last Quarter
Jan 1
New
Jan 7
First Quarter
Jan 15
Full

Hourly Weather History & Observations

Time (CST) Temp. Windchill Dew Point Humidity Pressure Visibility Wind Dir Wind Speed Gust Speed Precip Events Conditions
12:15 AM 37.4 °F 30.3 °F 32.0 °F 81% 29.79 in 10.0 mi SSW 10.4 mph - N/A   Clear
12:35 AM 37.4 °F 29.8 °F 32.0 °F 81% 29.79 in 10.0 mi SSW 11.5 mph - N/A   Clear
12:55 AM 35.6 °F 28.0 °F 32.0 °F 87% 29.78 in 10.0 mi South 10.4 mph - N/A   Clear
1:15 AM 35.6 °F 27.5 °F 32.0 °F 87% 29.78 in 10.0 mi South 11.5 mph - N/A   Clear
1:35 AM 35.6 °F 27.5 °F 32.0 °F 87% 29.78 in 10.0 mi South 11.5 mph - N/A   Clear
1:55 AM 35.6 °F 27.5 °F 32.0 °F 87% 29.78 in 10.0 mi South 11.5 mph - N/A   Clear
2:15 AM 35.6 °F 28.0 °F 32.0 °F 87% 29.78 in 10.0 mi South 10.4 mph - N/A   Clear
2:35 AM 37.4 °F 30.3 °F 32.0 °F 81% 29.79 in 10.0 mi SSW 10.4 mph - N/A   Clear
2:55 AM 35.6 °F 29.9 °F 32.0 °F 87% 29.79 in 10.0 mi South 6.9 mph - N/A   Clear
3:15 AM 35.6 °F 31.7 °F 32.0 °F 87% 29.80 in 10.0 mi SSW 4.6 mph - N/A   Clear
3:35 AM 37.4 °F 34.9 °F 32.0 °F 81% 29.79 in 10.0 mi SSW 3.5 mph - N/A   Clear
3:55 AM 35.6 °F - 32.0 °F 87% 29.79 in 10.0 mi Calm Calm - N/A   Clear
4:15 AM 32.0 °F - 30.2 °F 93% 29.79 in 10.0 mi Calm Calm - N/A   Clear
4:35 AM 32.0 °F 28.7 °F 30.2 °F 93% 29.80 in 10.0 mi East 3.5 mph - N/A   Clear
4:55 AM 32.0 °F - 30.2 °F 93% 29.80 in 10.0 mi Calm Calm - N/A   Clear
5:15 AM 32.0 °F 28.7 °F 30.2 °F 93% 29.80 in 10.0 mi ESE 3.5 mph - N/A   Clear
5:35 AM 30.2 °F 25.4 °F 28.4 °F 93% 29.81 in 10.0 mi NE 4.6 mph - N/A   Clear
5:55 AM 30.2 °F 25.4 °F 30.2 °F 100% 29.81 in 10.0 mi East 4.6 mph - N/A   Clear
6:15 AM 30.2 °F 24.3 °F 28.4 °F 93% 29.81 in 10.0 mi NE 5.8 mph - N/A   Clear
6:35 AM 30.2 °F 24.3 °F 30.2 °F 100% 29.81 in 10.0 mi NNE 5.8 mph - N/A   Clear
6:55 AM 30.2 °F 26.7 °F 28.4 °F 93% 29.81 in 10.0 mi NNE 3.5 mph - N/A   Clear
7:15 AM 30.2 °F - 28.4 °F 93% 29.82 in 10.0 mi Calm Calm - N/A   Clear
7:35 AM 30.2 °F 26.7 °F 28.4 °F 93% 29.81 in 10.0 mi East 3.5 mph - N/A   Clear
7:55 AM 30.2 °F 24.3 °F 30.2 °F 100% 29.81 in 9.0 mi SE 5.8 mph - N/A   Clear
8:15 AM 32.0 °F 28.7 °F 30.2 °F 93% 29.83 in 10.0 mi South 3.5 mph - N/A   Clear
8:35 AM 32.0 °F - 32.0 °F 100% 29.83 in 10.0 mi Calm Calm - N/A   Clear
8:55 AM 33.8 °F 30.8 °F 32.0 °F 93% 29.83 in 10.0 mi ENE 3.5 mph - N/A   Clear
9:15 AM 33.8 °F - 32.0 °F 93% 29.84 in 9.0 mi Calm Calm - N/A   Clear
9:35 AM 35.6 °F - 33.8 °F 93% 29.84 in 10.0 mi Calm Calm - N/A   Clear
9:55 AM 35.6 °F 32.8 °F 33.8 °F 93% 29.84 in 10.0 mi NE 3.5 mph - N/A   Clear
10:15 AM 37.4 °F 32.8 °F 33.8 °F 87% 29.85 in 10.0 mi NE 5.8 mph - N/A   Clear
10:35 AM 37.4 °F 32.1 °F 35.6 °F 93% 29.85 in 10.0 mi NNE 6.9 mph - N/A   Clear
10:55 AM 37.4 °F 32.8 °F 33.8 °F 87% 29.85 in 10.0 mi NNE 5.8 mph - N/A   Clear
11:15 AM 37.4 °F 30.3 °F 33.8 °F 87% 29.84 in 10.0 mi NE 10.4 mph - N/A   Clear
11:35 AM 37.4 °F 31.4 °F 33.8 °F 87% 29.83 in 10.0 mi NE 8.1 mph - N/A   Clear
11:55 AM 37.4 °F 30.8 °F 33.8 °F 87% 29.82 in 10.0 mi NE 9.2 mph - N/A   Clear
12:15 PM 39.2 °F 33.6 °F 33.8 °F 81% 29.81 in 10.0 mi ENE 8.1 mph - N/A   Clear
12:35 PM 39.2 °F 33.0 °F 33.8 °F 81% 29.80 in 10.0 mi ENE 9.2 mph - N/A   Clear
12:55 PM 39.2 °F 33.0 °F 33.8 °F 81% 29.80 in 9.0 mi ENE 9.2 mph - N/A   Mostly Cloudy
1:15 PM 39.2 °F 33.0 °F 33.8 °F 81% 29.79 in 10.0 mi ENE 9.2 mph - N/A   Overcast
1:35 PM 39.2 °F 32.5 °F 33.8 °F 81% 29.77 in 10.0 mi ENE 10.4 mph - N/A   Overcast
1:55 PM 39.2 °F 33.6 °F 33.8 °F 81% 29.78 in 10.0 mi ENE 8.1 mph - N/A   Overcast
2:15 PM 39.2 °F 34.2 °F 33.8 °F 81% 29.78 in 10.0 mi ENE 6.9 mph - N/A   Overcast
2:35 PM 39.2 °F 32.0 °F 33.8 °F 81% 29.76 in 10.0 mi East 11.5 mph - N/A   Overcast
2:55 PM 39.2 °F 32.0 °F 33.8 °F 81% 29.76 in 9.0 mi East 11.5 mph - N/A   Overcast
3:15 PM 37.4 °F 31.4 °F 33.8 °F 87% 29.77 in 8.0 mi ENE 8.1 mph - N/A   Overcast
3:35 PM 37.4 °F 30.8 °F 33.8 °F 87% 29.77 in 8.0 mi ENE 9.2 mph - N/A   Overcast
3:55 PM 37.4 °F 31.4 °F 33.8 °F 87% 29.78 in 7.0 mi NE 8.1 mph - N/A   Overcast
4:15 PM 37.4 °F 30.8 °F 33.8 °F 87% 29.78 in 7.0 mi NE 9.2 mph - N/A   Overcast
4:35 PM 35.6 °F 28.0 °F 33.8 °F 93% 29.77 in 7.0 mi NE 10.4 mph - N/A   Overcast
4:55 PM 35.6 °F 27.5 °F 33.8 °F 93% 29.77 in 6.0 mi NE 11.5 mph - N/A   Overcast
5:15 PM 35.6 °F 27.5 °F 32.0 °F 87% 29.77 in 6.0 mi NE 11.5 mph - N/A   Overcast
5:35 PM 35.6 °F 27.1 °F 33.8 °F 93% 29.77 in 4.0 mi NE 12.7 mph - N/A Rain Light Rain
5:55 PM 35.6 °F 26.6 °F 33.8 °F 93% 29.76 in 3.0 mi NE 13.8 mph - N/A Rain Light Rain
6:15 PM 33.8 °F 24.8 °F 33.8 °F 100% 29.76 in 2.0 mi NE 12.7 mph - N/A Rain Light Rain
6:35 PM 33.8 °F 24.8 °F 33.8 °F 100% 29.77 in 2.0 mi NE 12.7 mph - N/A Rain Light Rain
6:55 PM 33.8 °F 24.8 °F 33.8 °F 100% 29.77 in 1.5 mi NE 12.7 mph - 0.01 in Rain Light Rain
7:15 PM 33.8 °F 23.9 °F 33.8 °F 100% 29.76 in 1.2 mi NE 15.0 mph - N/A Rain Light Rain
7:35 PM 33.8 °F 23.9 °F 33.8 °F 100% 29.76 in 1.8 mi NE 15.0 mph - N/A   Overcast
7:55 PM 33.8 °F 24.8 °F 33.8 °F 100% 29.76 in 1.2 mi NE 12.7 mph 19.6 mph N/A Rain Light Rain
8:15 PM 33.8 °F 24.3 °F 33.8 °F 100% 29.75 in 1.0 mi NE 13.8 mph - N/A Rain Light Rain
8:35 PM 33.8 °F 24.3 °F 33.8 °F 100% 29.75 in 1.0 mi NE 13.8 mph - N/A Rain Light Rain
8:55 PM 33.8 °F 24.3 °F 33.8 °F 100% 29.75 in - NE 13.8 mph - 0.01 in Rain Light Rain
9:15 PM 33.8 °F 24.8 °F 33.8 °F 100% 29.75 in 1.0 mi ENE 12.7 mph - N/A   Overcast
9:35 PM 33.8 °F 25.3 °F 33.8 °F 100% 29.74 in 0.8 mi ENE 11.5 mph - N/A Rain Light Rain
9:55 PM 33.8 °F 25.8 °F 33.8 °F 100% 29.75 in 1.0 mi NE 10.4 mph - 0.03 in Rain Light Rain
10:15 PM 33.8 °F 26.4 °F 33.8 °F 100% 29.75 in 0.8 mi NE 9.2 mph - N/A Rain Light Rain
10:35 PM 33.8 °F 25.8 °F 33.8 °F 100% 29.75 in 1.2 mi NE 10.4 mph - N/A   Overcast
10:55 PM 33.8 °F 25.8 °F 33.8 °F 100% 29.74 in 1.2 mi NE 10.4 mph - N/A   Overcast
11:15 PM 33.8 °F 25.8 °F 33.8 °F 100% 29.74 in 1.0 mi NE 10.4 mph - N/A Rain Light Rain
11:35 PM 33.8 °F 26.4 °F 33.8 °F 100% 29.74 in 1.0 mi NE 9.2 mph - N/A   Overcast
11:55 PM 33.8 °F 27.0 °F 33.8 °F 100% 29.74 in 1.2 mi NE 8.1 mph - 0.02 in   Overcast